TimeAST,TemperatureF,Dew PointF,Humidity,Sea Level PressureIn,VisibilityMPH,Wind Direction,Wind SpeedMPH,Gust SpeedMPH,PrecipitationIn,Events,Conditions,WindDirDegrees,DateUTC
12:00 AM,86.0,77.0,74,29.62,3.7,North,4.6,-,N/A,,Unknown,10,2013-06-04 21:00:00
1:00 AM,84.2,78.8,84,29.62,3.7,NNE,3.5,-,N/A,,Unknown,20,2013-06-04 22:00:00
2:00 AM,84.2,78.8,84,29.62,3.7,Calm,Calm,-,N/A,,Unknown,0,2013-06-04 23:00:00
3:00 AM,86,70,49,29.62,4,,1.2,,,,Haze,,2013-06-05 00:00:00
3:00 AM,86.0,69.8,58,29.62,4.3,Variable,1.2,-,N/A,,Unknown,0,2013-06-05 00:00:00
3:30 AM,84.2,77.0,79,29.62,4.3,Variable,1.2,-,N/A,,Unknown,0,2013-06-05 00:30:00
4:00 AM,82.4,78.8,89,29.62,3.7,Variable,1.2,-,N/A,,Unknown,0,2013-06-05 01:00:00
4:30 AM,84.2,78.8,84,29.65,3.1,Variable,1.2,-,N/A,,Haze,0,2013-06-05 01:30:00
5:00 AM,84.2,80.6,89,29.65,2.2,North,3.5,-,N/A,,Haze,10,2013-06-05 02:00:00
5:30 AM,84.2,80.6,89,29.68,2.2,NNW,6.9,-,N/A,,Haze,340,2013-06-05 02:30:00
6:00 AM,86.0,75.2,70,29.68,3.1,NW,3.5,-,N/A,,Haze,310,2013-06-05 03:00:00
6:30 AM,87.8,71.6,58,29.68,3.7,NW,5.8,-,N/A,,Unknown,310,2013-06-05 03:30:00
7:00 AM,89.6,62.6,40,29.68,3.7,NW,5.8,-,N/A,,Unknown,310,2013-06-05 04:00:00
8:00 AM,93.2,64.4,38,29.71,3.7,WNW,3.5,-,N/A,,Unknown,290,2013-06-05 05:00:00
9:00 AM,94,65,29,29.74,4,North,6.9,,,,Widespread Dust,10,2013-06-05 06:00:00
9:30 AM,96.8,66.2,37,29.71,3.7,Variable,4.6,-,N/A,,Unknown,0,2013-06-05 06:30:00
10:00 AM,98.6,66.2,35,29.71,3.7,NNW,9.2,-,N/A,,Unknown,340,2013-06-05 07:00:00
10:30 AM,98.6,69.8,39,29.71,3.7,North,6.9,-,N/A,,Unknown,10,2013-06-05 07:30:00
11:00 AM,98.6,71.6,42,29.68,3.7,North,9.2,-,N/A,,Unknown,10,2013-06-05 08:00:00
11:30 AM,98.6,69.8,39,29.68,3.7,NNE,10.4,-,N/A,,Unknown,20,2013-06-05 08:30:00
12:00 PM,100.4,68.0,35,29.68,3.7,NNE,9.2,-,N/A,,Unknown,20,2013-06-05 09:00:00
12:30 PM,98.6,69.8,39,29.68,3.7,NNE,10.4,-,N/A,,Unknown,20,2013-06-05 09:30:00
1:00 PM,100.4,66.2,33,29.65,3.7,North,12.7,-,N/A,,Unknown,10,2013-06-05 10:00:00
1:30 PM,98.6,68.0,37,29.65,3.7,North,13.8,-,N/A,,Unknown,10,2013-06-05 10:30:00
2:00 PM,96.8,69.8,41,29.65,3.7,NE,10.4,-,N/A,,Unknown,40,2013-06-05 11:00:00
2:30 PM,96.8,69.8,41,29.65,3.7,NE,10.4,-,N/A,,Unknown,40,2013-06-05 11:30:00
3:00 PM,95,74,41,29.66,4,NE,12.7,,,,Widespread Dust,40,2013-06-05 12:00:00
3:00 PM,95.0,73.4,49,29.65,3.7,NE,12.7,-,N/A,,Unknown,40,2013-06-05 12:00:00
3:30 PM,96.8,69.8,41,29.62,3.7,North,19.6,-,N/A,,Unknown,10,2013-06-05 12:30:00
4:00 PM,96.8,69.8,41,29.62,3.7,North,17.3,-,N/A,,Unknown,360,2013-06-05 13:00:00
4:30 PM,95.0,73.4,49,29.65,3.7,North,17.3,-,N/A,,Unknown,10,2013-06-05 13:30:00
5:00 PM,93.2,75.2,56,29.65,3.7,North,13.8,-,N/A,,Unknown,10,2013-06-05 14:00:00
5:30 PM,93.2,73.4,52,29.65,3.7,North,16.1,-,N/A,,Unknown,10,2013-06-05 14:30:00
6:00 PM,93.2,71.6,49,29.65,3.7,North,15.0,-,N/A,,Unknown,360,2013-06-05 15:00:00
6:30 PM,93.2,64.4,38,29.65,3.7,North,11.5,-,N/A,,Unknown,350,2013-06-05 15:30:00
7:00 PM,93.2,66.2,41,29.65,4.3,North,10.4,-,N/A,,Unknown,350,2013-06-05 16:00:00
8:00 PM,93.2,57.2,30,29.65,4.3,NNW,15.0,-,N/A,,Unknown,330,2013-06-05 17:00:00
9:00 PM,92,56,20,29.67,4,NNW,8.1,,,,Widespread Dust,330,2013-06-05 18:00:00
9:00 PM,91.4,55.4,29,29.65,4.3,NNW,8.1,-,N/A,,Unknown,330,2013-06-05 18:00:00
9:30 PM,91.4,55.4,29,29.65,4.3,North,8.1,-,N/A,,Unknown,350,2013-06-05 18:30:00
10:00 PM,89.6,57.2,33,29.65,4.3,NNW,11.5,-,N/A,,Unknown,340,2013-06-05 19:00:00
10:30 PM,89.6,62.6,40,29.65,4.3,NNW,5.8,-,N/A,,Unknown,340,2013-06-05 19:30:00
11:00 PM,89.6,60.8,38,29.65,4.3,North,6.9,-,N/A,,Unknown,350,2013-06-05 20:00:00
11:30 PM,89.6,60.8,38,29.62,4.3,NW,6.9,-,N/A,,Unknown,310,2013-06-05 20:30:00